KB2SKP Weather Reports


Display with metric or nautical units.
time (UTC)temp
F
wind
direction
speed
MPH
gust
MPH
rain 1hr
in
rain 24hr
in
rain mn
in
humidity
%
barometer
mb
20260905230433 75 255 0.0 0.0 0.00 0.00 0.00 86 1007.3
20260905230336 75 190 0.0 1.0 0.00 0.00 0.00 86 1007.5
20260905225931 75 190 0.0 1.0 0.00 0.00 0.00 86 1007.5
20260905225427 75 237 0.0 2.0 0.00 0.00 0.00 86 1007.3
20260905225330 76 271 1.0 2.0 0.00 0.00 0.00 86 1007.2
20260905224921 76 271 1.0 2.0 0.00 0.00 0.00 86 1007.2
20260905224418 76 142 0.0 0.0 0.00 0.00 0.00 84 1007.2
20260905223917 77 164 0.0 1.0 0.00 0.00 0.00 83 1007.0
20260905223415 77 279 0.0 1.0 0.00 0.00 0.00 82 1007.2
20260905222915 77 50 0.0 0.0 0.00 0.00 0.00 80 1007.0
20260905222414 77 329 0.0 1.0 0.00 0.00 0.00 79 1006.8
20260905221910 77 328 0.0 0.0 0.00 0.00 0.00 81 1007.0
20260905221816 77 232 0.0 1.0 0.00 0.00 0.00 82 1006.9
20260905221407 77 232 0.0 1.0 0.00 0.00 0.00 82 1006.9
20260905220902 77 0 0.0 1.0 0.00 0.00 0.00 80 1006.9
20260905220805 78 217 0.0 0.0 0.00 0.00 0.00 80 1006.9
20260905220358 78 217 0.0 0.0 0.00 0.00 0.00 80 1006.9
20260905215857 78 235 1.0 1.0 0.00 0.00 0.00 79 1006.8
20260905215804 78 219 1.0 2.0 0.00 0.00 0.00 78 1007.1
20260905215353 78 219 1.0 2.0 0.00 0.00 0.00 78 1007.1
20260905214849 78 269 0.0 1.0 0.00 0.00 0.00 81 1007.0
20260905214344 78 287 0.0 1.0 0.00 0.00 0.00 78 1006.9
20260905213839 78 257 0.0 1.0 0.00 0.00 0.00 77 1006.8
20260905213742 78 19 0.0 1.0 0.00 0.00 0.00 76 1006.9
20260905213335 78 19 0.0 1.0 0.00 0.00 0.00 76 1006.9
20260905213241 78 0 1.0 2.0 0.00 0.00 0.00 76 1007.3
20260905212830 78 0 1.0 2.0 0.00 0.00 0.00 76 1007.3
20260905212330 78 265 0.0 3.0 0.00 0.00 0.00 76 1006.9
20260905212236 79 312 0.0 1.0 0.00 0.00 0.00 75 1006.9
20260905211824 79 312 0.0 1.0 0.00 0.00 0.00 75 1006.9
20260905211320 78 261 1.0 2.0 0.00 0.00 0.00 75 1007.0
20260905210817 78 304 1.0 2.0 0.00 0.00 0.00 76 1006.8
20260905210724 79 2 1.0 4.0 0.00 0.00 0.00 75 1006.7
20260905210316 79 2 1.0 4.0 0.00 0.00 0.00 75 1006.7
20260905205815 79 6 0.0 1.0 0.00 0.00 0.00 75 1006.7
20260905205310 80 278 2.0 3.0 0.00 0.00 0.00 73 1006.8
20260905205218 81 94 0.0 3.0 0.00 0.00 0.00 71 1006.7
20260905204809 81 94 0.0 3.0 0.00 0.00 0.00 71 1006.7
20260905204712 82 336 1.0 5.0 0.00 0.00 0.00 68 1006.2
20260905204305 82 336 1.0 5.0 0.00 0.00 0.00 68 1006.2
20260905203804 82 352 2.0 4.0 0.00 0.00 0.00 66 1006.4
20260905203300 82 328 3.0 4.0 0.00 0.00 0.00 67 1006.5
20260905203026 80 188 0.0 2.0 0.00 0.00 0.00 69 1006.7
20260905202755 81 307 0.0 3.0 0.00 0.00 0.00 68 1006.5
20260905202250 81 285 3.0 3.0 0.00 0.00 0.00 67 1006.6
20260905201746 82 242 0.0 4.0 0.00 0.00 0.00 69 1006.4
20260905201241 82 318 1.0 5.0 0.00 0.00 0.00 67 1006.5
20260905200736 80 188 0.0 2.0 0.00 0.00 0.00 69 1006.7
20260905200652 78 274 0.0 2.0 0.00 0.00 0.00 73 1006.7
20260905200232 78 274 0.0 2.0 0.00 0.00 0.00 73 1006.7
20260905195729 80 291 3.0 5.0 0.00 0.00 0.00 71 1006.6
20260905195224 80 12 1.0 4.0 0.00 0.00 0.00 71 1006.7
20260905194720 79 338 1.0 2.0 0.00 0.00 0.00 72 1006.6
20260905194631 79 126 0.0 2.0 0.00 0.00 0.00 75 1006.8
20260905194219 79 126 0.0 2.0 0.00 0.00 0.00 75 1006.8
20260905193713 79 294 1.0 2.0 0.00 0.00 0.00 75 1006.6
20260905193209 79 1 1.0 3.0 0.00 0.00 0.00 74 1006.8
20260905192704 79 312 3.0 4.0 0.00 0.00 0.00 74 1006.6
20260905192201 79 260 1.0 3.0 0.00 0.00 0.00 75 1006.6
20260905191700 79 333 2.0 5.0 0.00 0.00 0.00 73 1006.8
20260905191158 80 303 3.0 5.0 0.00 0.00 0.00 75 1006.5
20260905191118 79 319 3.0 4.0 0.00 0.00 0.00 76 1006.5
20260905190657 79 319 3.0 4.0 0.00 0.00 0.00 76 1006.5
20260905190156 78 283 2.0 3.0 0.00 0.00 0.00 79 1006.5
20260905185655 78 264 2.0 2.0 0.00 0.00 0.00 80 1006.3
20260905185150 78 197 0.0 3.0 0.00 0.00 0.00 80 1006.2
20260905184649 77 247 0.0 2.0 0.00 0.00 0.00 80 1006.1
20260905184148 77 298 1.0 1.0 0.00 0.00 0.00 82 1006.2
20260905183642 77 108 1.0 1.0 0.00 0.00 0.00 82 1006.4
20260905183137 78 76 2.0 2.0 0.00 0.00 0.00 84 1006.6
20260905182636 78 258 0.0 2.0 0.00 0.00 0.00 83 1007.1
20260905182540 78 122 0.0 3.0 0.00 0.00 0.00 83 1007.2
20260905182131 78 122 0.0 3.0 0.00 0.00 0.00 83 1007.2
20260905181626 77 335 0.0 1.0 0.00 0.00 0.00 82 1007.4
20260905181125 78 55 0.0 1.0 0.00 0.00 0.00 81 1007.5
20260905180620 78 257 0.0 1.0 0.00 0.00 0.00 82 1007.9
20260905180116 78 269 2.0 2.0 0.00 0.00 0.00 82 1008.1
20260905175615 78 279 0.0 2.0 0.00 0.00 0.00 85 1008.2
20260905175110 78 249 1.0 2.0 0.00 0.00 0.00 83 1008.4
20260905175016 79 290 1.0 3.0 0.00 0.00 0.00 81 1008.4
20260905174605 79 290 1.0 3.0 0.00 0.00 0.00 81 1008.4
20260905174511 79 266 0.0 1.0 0.00 0.00 0.00 81 1008.4
20260905174101 79 266 0.0 1.0 0.00 0.00 0.00 81 1008.4
20260905173557 78 284 1.0 2.0 0.00 0.00 0.00 81 1008.5
20260905173052 78 275 0.0 1.0 0.00 0.00 0.00 80 1008.3
20260905172551 78 317 0.0 2.0 0.00 0.00 0.00 79 1008.4
20260905172454 79 48 1.0 3.0 0.00 0.00 0.00 78 1008.7
20260905172046 79 48 1.0 3.0 0.00 0.00 0.00 78 1008.7
20260905171543 79 289 2.0 2.0 0.00 0.00 0.00 81 1008.4
20260905171448 79 297 0.0 1.0 0.00 0.00 0.00 79 1008.3
20260905171038 79 297 0.0 1.0 0.00 0.00 0.00 79 1008.3
20260905170535 80 317 1.0 4.0 0.00 0.00 0.00 77 1008.3
20260905170030 79 247 1.0 3.0 0.00 0.00 0.00 77 1008.2
20260905165525 79 256 0.0 2.0 0.00 0.00 0.00 77 1008.4
20260905165020 80 269 1.0 3.0 0.00 0.00 0.00 78 1008.6
20260905164514 79 344 2.0 3.0 0.00 0.00 0.00 78 1008.4
20260905164009 80 274 3.0 4.0 0.00 0.00 0.00 77 1008.4
20260905163915 80 267 2.0 4.0 0.00 0.00 0.00 77 1008.5
20260905163505 80 267 2.0 4.0 0.00 0.00 0.00 77 1008.5
20260905163409 80 272 4.0 5.0 0.00 0.00 0.00 78 1008.1
20260905163001 80 272 4.0 5.0 0.00 0.00 0.00 78 1008.1
20260905162904 81 294 3.0 5.0 0.00 0.00 0.00 78 1008.0
20260905162456 81 294 3.0 5.0 0.00 0.00 0.00 78 1008.0
20260905161951 80 322 0.0 4.0 0.00 0.00 0.00 81 1008.1
20260905161858 79 313 2.0 3.0 0.00 0.00 0.00 81 1008.1
20260905161450 79 313 2.0 3.0 0.00 0.00 0.00 81 1008.1
20260905161353 79 329 0.0 2.0 0.00 0.00 0.00 82 1008.2
20260905160948 79 329 0.0 2.0 0.00 0.00 0.00 82 1008.2
20260905160852 79 290 2.0 4.0 0.00 0.00 0.00 81 1008.1
20260905160442 79 290 2.0 4.0 0.00 0.00 0.00 81 1008.1
20260905155942 79 308 3.0 5.0 0.00 0.00 0.00 82 1008.2
20260905155437 79 305 1.0 3.0 0.00 0.00 0.00 83 1008.3
20260905155341 79 257 1.0 3.0 0.00 0.00 0.00 83 1008.3
20260905154936 79 257 1.0 3.0 0.00 0.00 0.00 83 1008.3
20260905154840 79 313 0.0 4.0 0.00 0.00 0.00 83 1008.1
20260905154431 79 313 0.0 4.0 0.00 0.00 0.00 83 1008.1
20260905154335 79 336 4.0 5.0 0.00 0.00 0.00 84 1008.3
20260905153926 79 336 4.0 5.0 0.00 0.00 0.00 84 1008.3
20260905153423 80 331 2.0 4.0 0.00 0.00 0.00 83 1008.3
20260905152922 80 311 1.0 6.0 0.00 0.00 0.00 83 1008.3
20260905152421 80 81 0.0 5.0 0.00 0.00 0.00 83 1008.4
20260905152323 80 44 0.0 3.0 0.00 0.00 0.00 83 1008.2
20260905151917 80 44 0.0 3.0 0.00 0.00 0.00 83 1008.2
20260905151413 80 301 1.0 3.0 0.00 0.00 0.00 84 1008.5
20260905150912 79 333 2.0 3.0 0.00 0.00 0.00 84 1008.5
20260905150407 80 287 3.0 4.0 0.00 0.00 0.00 83 1008.6
20260905145904 79 290 2.0 3.0 0.00 0.00 0.00 84 1008.4
20260905145358 79 297 3.0 3.0 0.00 0.00 0.00 84 1008.3
20260905145306 80 346 2.0 5.0 0.00 0.00 0.00 82 1008.3
20260905144858 80 346 2.0 5.0 0.00 0.00 0.00 82 1008.3
20260905144804 80 269 3.0 4.0 0.00 0.00 0.00 82 1008.4
20260905144353 80 269 3.0 4.0 0.00 0.00 0.00 82 1008.4
20260905143852 80 330 3.0 4.0 0.00 0.00 0.00 82 1008.3
20260905143346 79 329 0.0 3.0 0.00 0.00 0.00 84 1008.0
20260905142846 79 345 1.0 5.0 0.00 0.00 0.00 82 1008.1
20260905142344 80 9 2.0 2.0 0.00 0.00 0.00 83 1008.0
20260905141841 79 296 0.0 4.0 0.00 0.00 0.00 84 1007.8
20260905141746 80 319 3.0 3.0 0.00 0.00 0.00 84 1007.9
20260905141336 80 319 3.0 3.0 0.00 0.00 0.00 84 1007.9
20260905140832 80 291 2.0 4.0 0.00 0.00 0.00 82 1007.9
20260905140332 79 50 2.0 4.0 0.00 0.00 0.00 82 1007.8
20260905135830 79 312 0.0 2.0 0.00 0.00 0.00 82 1007.7
20260905135326 78 314 0.0 4.0 0.00 0.00 0.00 82 1007.7
20260905135229 78 328 2.0 3.0 0.00 0.00 0.00 83 1007.8
20260905134821 78 328 2.0 3.0 0.00 0.00 0.00 83 1007.8
20260905134314 78 1 2.0 3.0 0.00 0.00 0.00 84 1007.8
20260905133809 78 336 2.0 3.0 0.00 0.00 0.00 85 1007.7
20260905133305 78 344 2.0 3.0 0.00 0.00 0.00 85 1008.0
20260905132803 78 242 0.0 2.0 0.00 0.00 0.00 85 1007.8
20260905132259 77 287 0.0 2.0 0.00 0.00 0.00 85 1007.9
20260905131754 77 287 0.0 4.0 0.00 0.00 0.00 86 1007.8
20260905131249 77 304 1.0 2.0 0.00 0.00 0.00 86 1007.9
20260905130744 77 311 0.0 3.0 0.00 0.00 0.00 86 1007.7
20260905130243 77 40 0.0 2.0 0.00 0.00 0.00 86 1007.6
20260905130149 77 72 3.0 4.0 0.00 0.00 0.00 85 1007.9
20260905125738 77 72 3.0 4.0 0.00 0.00 0.00 85 1007.9
20260905125233 77 320 2.0 4.0 0.00 0.00 0.00 86 1007.7
20260905125138 77 251 1.0 3.0 0.00 0.00 0.00 86 1007.9
20260905124730 77 251 1.0 3.0 0.00 0.00 0.00 86 1007.9
20260905124226 77 284 2.0 3.0 0.00 0.00 0.00 86 1007.8
20260905123720 76 334 3.0 3.0 0.00 0.00 0.00 86 1007.7
20260905123218 76 336 0.0 3.0 0.00 0.00 0.00 87 1007.6
20260905123126 76 309 2.0 3.0 0.00 0.00 0.00 88 1007.8
20260905122717 76 309 2.0 3.0 0.00 0.00 0.00 88 1007.8
20260905122211 76 21 1.0 2.0 0.00 0.00 0.00 88 1007.8
20260905122110 75 353 0.0 3.0 0.00 0.00 0.00 89 1007.8
20260905121706 75 353 0.0 3.0 0.00 0.00 0.00 89 1007.8
20260905121203 75 38 0.0 2.0 0.00 0.00 0.00 90 1007.6
20260905120701 75 286 1.0 2.0 0.00 0.00 0.00 90 1007.6
20260905120156 75 337 0.0 2.0 0.00 0.00 0.00 89 1007.7
20260905115656 75 322 0.0 2.0 0.00 0.00 0.00 91 1007.7
20260905115151 75 335 0.0 2.0 0.00 0.00 0.00 91 1007.8
20260905114651 75 313 1.0 2.0 0.00 0.00 0.00 91 1007.6
20260905114556 74 233 0.0 1.0 0.00 0.00 0.00 92 1007.4
20260905114149 74 233 0.0 1.0 0.00 0.00 0.00 92 1007.4
20260905113649 74 326 2.0 2.0 0.00 0.00 0.00 93 1007.3
20260905113555 73 312 1.0 2.0 0.00 0.00 0.00 94 1007.3
20260905113145 73 312 1.0 2.0 0.00 0.00 0.00 94 1007.3
20260905112639 73 5 0.0 2.0 0.00 0.00 0.00 94 1007.2
20260905112135 73 335 0.0 1.0 0.00 0.00 0.00 95 1007.2
20260905112044 72 345 0.0 2.0 0.00 0.00 0.00 95 1007.4
20260905111635 72 345 0.0 2.0 0.00 0.00 0.00 95 1007.4
20260905111134 72 331 1.0 2.0 0.00 0.00 0.00 96 1007.0
20260905110633 72 239 0.0 1.0 0.00 0.00 0.00 96 1007.1
20260905110128 72 334 0.0 1.0 0.00 0.00 0.00 96 1007.0
20260905105623 72 229 0.0 1.0 0.00 0.00 0.00 96 1006.9
20260905105122 72 327 0.0 2.0 0.00 0.00 0.00 96 1006.8
20260905104618 72 18 0.0 2.0 0.00 0.00 0.00 96 1007.0
20260905104113 71 296 0.0 2.0 0.00 0.00 0.00 96 1007.1
20260905103609 72 212 1.0 2.0 0.00 0.00 0.00 96 1006.9
20260905103104 72 274 0.0 2.0 0.00 0.00 0.00 96 1006.6
20260905102554 72 235 1.0 1.0 0.00 0.00 0.00 96 1006.6
20260905102051 72 314 0.0 1.0 0.00 0.00 0.00 95 1006.5
20260905101549 72 345 0.0 1.0 0.00 0.00 0.00 95 1006.5
20260905101047 72 180 0.0 1.0 0.00 0.00 0.00 95 1006.7
20260905100544 72 349 0.0 1.0 0.00 0.00 0.00 95 1006.7
20260905100043 72 298 0.0 2.0 0.00 0.00 0.00 95 1006.6
20260905095936 72 225 1.0 1.0 0.00 0.00 0.00 95 1006.4
20260905095538 72 225 1.0 1.0 0.00 0.00 0.00 95 1006.4
20260905095441 72 282 2.0 2.0 0.00 0.00 0.00 95 1006.4
20260905095033 72 282 2.0 2.0 0.00 0.00 0.00 95 1006.4
20260905094931 72 269 0.0 2.0 0.00 0.00 0.00 95 1006.3
20260905094528 72 269 0.0 2.0 0.00 0.00 0.00 95 1006.3
20260905094425 72 269 0.0 2.0 0.00 0.00 0.00 95 1006.3
20260905094027 72 269 0.0 2.0 0.00 0.00 0.00 95 1006.3
20260905093522 72 329 0.0 2.0 0.00 0.00 0.00 95 1006.4
20260905093429 72 245 2.0 2.0 0.00 0.00 0.00 95 1006.6
20260905093019 72 245 2.0 2.0 0.00 0.00 0.00 95 1006.6
20260905092928 72 269 1.0 2.0 0.00 0.00 0.00 95 1006.6
20260905092519 72 269 1.0 2.0 0.00 0.00 0.00 95 1006.6
20260905092015 72 283 0.0 2.0 0.00 0.00 0.00 94 1006.4
20260905091513 73 275 1.0 1.0 0.00 0.00 0.00 94 1006.4
20260905091417 73 299 0.0 1.0 0.00 0.00 0.00 94 1006.5
20260905091008 73 299 0.0 1.0 0.00 0.00 0.00 94 1006.5
20260905090503 73 252 0.0 1.0 0.00 0.00 0.00 94 1006.4
20260905090002 73 280 1.0 2.0 0.00 0.00 0.00 93 1006.5
20260905085501 73 283 0.0 2.0 0.00 0.00 0.00 93 1006.5
20260905085405 73 322 0.0 2.0 0.00 0.00 0.00 93 1006.5
20260905084957 73 322 0.0 2.0 0.00 0.00 0.00 93 1006.5
20260905084456 73 334 0.0 2.0 0.00 0.00 0.00 92 1006.4
20260905083952 74 256 0.0 1.0 0.00 0.00 0.00 92 1006.4
20260905083447 74 305 0.0 2.0 0.00 0.00 0.00 92 1006.4
20260905083353 74 308 2.0 4.0 0.00 0.00 0.00 92 1006.7
20260905082943 74 308 2.0 4.0 0.00 0.00 0.00 92 1006.7
20260905082439 73 339 3.0 3.0 0.00 0.00 0.00 93 1006.6
20260905081934 73 279 1.0 4.0 0.00 0.00 0.00 94 1006.6
20260905081831 73 326 1.0 2.0 0.00 0.00 0.00 94 1006.6
20260905081434 73 326 1.0 2.0 0.00 0.00 0.00 94 1006.6
20260905081331 73 346 1.0 3.0 0.00 0.00 0.00 94 1006.5
20260905080932 73 346 1.0 3.0 0.00 0.00 0.00 94 1006.5
20260905080427 73 319 2.0 4.0 0.00 0.00 0.00 95 1006.7
20260905080325 72 357 1.0 3.0 0.00 0.00 0.00 97 1006.5
20260905075926 72 357 1.0 3.0 0.00 0.00 0.00 97 1006.5
20260905075830 72 299 0.0 2.0 0.00 0.00 0.00 97 1006.8
20260905075421 72 299 0.0 2.0 0.00 0.00 0.00 97 1006.8
20260905075329 72 329 1.0 2.0 0.00 0.00 0.00 97 1006.7
20260905074920 72 329 1.0 2.0 0.00 0.00 0.00 97 1006.7
20260905074824 73 299 0.0 2.0 0.00 0.00 0.00 97 1006.6
20260905074416 73 299 0.0 2.0 0.00 0.00 0.00 97 1006.6
20260905073911 73 248 0.0 1.0 0.00 0.00 0.00 97 1006.8
20260905073803 73 303 3.0 3.0 0.00 0.00 0.00 98 1006.7
20260905073406 73 303 3.0 3.0 0.00 0.00 0.00 98 1006.7
20260905073312 73 195 0.0 1.0 0.00 0.00 0.00 97 1006.9
20260905072902 73 195 0.0 1.0 0.00 0.00 0.00 97 1006.9
20260905072356 73 291 0.0 1.0 0.00 0.00 0.00 97 1007.0
20260905072305 73 269 0.0 1.0 0.00 0.00 0.00 97 1006.8
20260905071852 73 269 0.0 1.0 0.00 0.00 0.00 97 1006.8
20260905071343 73 323 0.0 1.0 0.00 0.00 0.00 97 1006.8
20260905071250 73 10 0.0 3.0 0.00 0.00 0.00 97 1006.9
20260905070843 73 10 0.0 3.0 0.00 0.00 0.00 97 1006.9
20260905070740 73 203 0.0 1.0 0.00 0.00 0.00 97 1007.1
20260905070339 73 203 0.0 1.0 0.00 0.00 0.00 97 1007.1
20260905065838 73 202 0.0 2.0 0.00 0.00 0.00 97 1007.0
20260905065336 73 269 0.0 2.0 0.00 0.00 0.00 97 1007.3
20260905064832 73 199 0.0 2.0 0.00 0.00 0.00 97 1007.0
20260905064738 73 242 0.0 3.0 0.00 0.00 0.00 97 1007.0
20260905064328 73 242 0.0 3.0 0.00 0.00 0.00 97 1007.0
20260905063826 73 330 0.0 3.0 0.00 0.00 0.00 97 1007.3
20260905063727 73 299 0.0 2.0 0.00 0.00 0.00 97 1007.2
20260905063322 73 299 0.0 2.0 0.00 0.00 0.00 97 1007.2
20260905063222 73 330 1.0 2.0 0.00 0.00 0.00 97 1007.2
20260905062819 73 330 1.0 2.0 0.00 0.00 0.00 97 1007.2
20260905062313 73 304 0.0 2.0 0.00 0.00 0.00 96 1007.2
20260905062215 74 274 2.0 3.0 0.00 0.00 0.00 96 1007.4
20260905061808 74 274 2.0 3.0 0.00 0.00 0.00 96 1007.4
20260905061710 73 299 3.0 4.0 0.00 0.00 0.00 96 1007.2
20260905061308 73 299 3.0 4.0 0.00 0.00 0.00 96 1007.2
20260905060802 73 245 1.0 1.0 0.00 0.00 0.00 96 1007.3
20260905060709 73 315 0.0 2.0 0.00 0.00 0.00 96 1007.3
20260905060259 73 315 0.0 2.0 0.00 0.00 0.00 96 1007.3
20260905055757 74 198 0.0 1.0 0.00 0.00 0.00 96 1007.4
20260905055703 74 271 1.0 3.0 0.00 0.00 0.00 96 1007.5
20260905055252 74 271 1.0 3.0 0.00 0.00 0.00 96 1007.5
20260905055158 73 230 1.0 2.0 0.00 0.00 0.00 96 1007.5
20260905054747 73 230 1.0 2.0 0.00 0.00 0.00 96 1007.5
20260905054244 74 302 0.0 2.0 0.00 0.00 0.00 95 1007.6
20260905054147 74 269 1.0 1.0 0.00 0.00 0.00 95 1007.7
20260905053737 74 269 1.0 1.0 0.00 0.00 0.00 95 1007.7
20260905053233 74 300 1.0 3.0 0.00 0.00 0.00 95 1007.9
20260905052732 74 282 0.0 1.0 0.00 0.00 0.00 96 1007.9
20260905052227 74 290 0.0 2.0 0.00 0.00 0.00 95 1007.8
20260905051726 74 240 2.0 3.0 0.00 0.00 0.00 95 1008.1
20260905051223 74 205 0.0 4.0 0.00 0.00 0.00 95 1008.1
20260905050719 74 307 0.0 4.0 0.00 0.00 0.00 96 1008.0
20260905050216 74 283 1.0 2.0 0.00 0.00 0.00 95 1008.1
20260905045715 74 282 0.0 2.0 0.00 0.00 0.00 95 1008.2
20260905045211 75 302 2.0 4.0 0.00 0.00 0.00 95 1008.0
20260905045112 74 0 0.0 3.0 0.00 0.00 0.00 95 1008.4
20260905044706 74 0 0.0 3.0 0.00 0.00 0.00 95 1008.4
20260905044612 74 263 1.0 2.0 0.00 0.00 0.00 95 1008.3
20260905044202 74 263 1.0 2.0 0.00 0.00 0.00 95 1008.3
20260905043700 74 218 0.0 2.0 0.00 0.00 0.00 95 1008.2
20260905043155 75 269 1.0 3.0 0.00 0.00 0.00 95 1008.4
20260905043105 74 262 2.0 2.0 0.00 0.00 0.00 96 1008.3
20260905042654 74 262 2.0 2.0 0.00 0.00 0.00 96 1008.3
20260905042148 74 297 1.0 2.0 0.00 0.00 0.00 95 1008.5
20260905042054 75 166 0.0 1.0 0.00 0.00 0.00 95 1008.5
20260905041644 75 166 0.0 1.0 0.00 0.00 0.00 95 1008.5
20260905041549 75 283 1.0 3.0 0.00 0.00 0.00 95 1008.5
20260905041139 75 283 1.0 3.0 0.00 0.00 0.00 95 1008.5
20260905041043 74 23 0.0 3.0 0.00 0.00 0.00 96 1008.5
20260905040634 74 23 0.0 3.0 0.00 0.00 0.00 96 1008.5
20260905040528 74 240 0.0 2.0 0.00 0.00 0.00 95 1008.5
20260905040133 74 240 0.0 2.0 0.00 0.00 0.00 95 1008.5
20260905040032 74 291 0.0 2.0 0.00 2.13 2.13 95 1008.6
20260905035628 74 291 0.0 2.0 0.00 2.13 2.13 95 1008.6
20260905035532 74 297 1.0 3.0 0.00 2.13 2.13 95 1008.5
20260905035125 74 297 1.0 3.0 0.00 2.13 2.13 95 1008.5
20260905035026 74 275 0.0 2.0 0.00 2.13 2.13 95 1008.7
20260905034620 74 275 0.0 2.0 0.00 2.13 2.13 95 1008.7
20260905034120 74 50 0.0 1.0 0.00 2.13 2.13 95 1008.5
20260905033614 74 327 2.0 2.0 0.00 2.13 2.13 95 1008.6
20260905033520 74 208 1.0 2.0 0.00 2.13 2.13 95 1008.5
20260905033110 74 208 1.0 2.0 0.00 2.13 2.13 95 1008.5
20260905032609 74 312 0.0 2.0 0.00 2.13 2.13 94 1008.5
20260905032104 74 275 0.0 2.0 0.00 2.13 2.13 94 1008.5
20260905031600 74 305 0.0 3.0 0.00 2.13 2.13 94 1008.5
20260905031100 74 303 2.0 4.0 0.00 2.13 2.13 95 1008.7
20260905030555 73 236 0.0 1.0 0.00 2.13 2.13 95 1008.4
20260905030050 74 282 0.0 3.0 0.00 2.13 2.13 95 1008.6
20260905025545 74 205 0.0 2.0 0.00 2.13 2.13 95 1008.8
20260905025441 74 202 0.0 2.0 0.00 2.13 2.13 95 1008.4
20260905025041 74 202 0.0 2.0 0.00 2.13 2.13 95 1008.4
20260905024536 74 227 1.0 1.0 0.00 2.13 2.13 94 1008.8
20260905024032 74 8 0.0 2.0 0.00 2.13 2.13 94 1008.9
20260905023527 74 298 0.0 1.0 0.00 2.13 2.13 93 1009.0
20260905023027 74 301 0.0 1.0 0.00 2.13 2.13 92 1009.1
20260905022929 75 242 0.0 2.0 0.00 2.13 2.13 92 1008.7
20260905022521 75 242 0.0 2.0 0.00 2.13 2.13 92 1008.7
20260905022016 75 335 0.0 2.0 0.00 2.13 2.13 92 1008.8
20260905021918 75 284 2.0 3.0 0.00 2.13 2.13 92 1009.1
20260905021516 75 284 2.0 3.0 0.00 2.13 2.13 92 1009.1
20260905021417 75 276 1.0 2.0 0.00 2.13 2.13 92 1009.0
20260905021011 75 276 1.0 2.0 0.00 2.13 2.13 92 1009.0
20260905020506 75 335 0.0 2.0 0.00 2.13 2.13 91 1008.9
20260905020006 75 271 0.0 4.0 0.00 2.13 2.13 92 1008.8
20260905015504 75 275 0.0 2.0 0.00 2.13 2.13 93 1008.7
20260905015003 75 310 0.0 2.0 0.00 2.13 2.13 93 1008.6
20260905014900 75 263 1.0 2.0 0.00 2.13 2.13 93 1008.7
20260905014458 75 263 1.0 2.0 0.00 2.13 2.13 93 1008.7
20260905013954 75 281 2.0 4.0 0.00 2.13 2.13 92 1008.8
20260905013859 74 246 0.0 2.0 0.00 2.13 2.13 92 1008.7
20260905013450 74 246 0.0 2.0 0.00 2.13 2.13 92 1008.7
20260905013354 75 207 0.0 2.0 0.00 2.13 2.13 92 1008.8
20260905012946 75 207 0.0 2.0 0.00 2.13 2.13 92 1008.8
20260905012440 74 245 0.0 2.0 0.00 2.13 2.13 93 1008.6
20260905012348 74 278 0.0 2.0 0.00 2.13 2.13 94 1008.4
20260905011937 74 278 0.0 2.0 0.00 2.13 2.13 94 1008.4
20260905011832 75 212 0.0 1.0 0.00 2.13 2.13 94 1008.5
20260905011433 75 212 0.0 1.0 0.00 2.13 2.13 94 1008.5
20260905011332 75 233 0.0 2.0 0.00 2.13 2.13 94 1008.4
20260905010928 75 233 0.0 2.0 0.00 2.13 2.13 94 1008.4
20260905010423 75 244 1.0 2.0 0.00 2.13 2.13 94 1008.4
20260905005919 75 266 1.0 2.0 0.00 2.13 2.13 93 1008.5
20260905005825 75 246 1.0 2.0 0.00 2.13 2.13 92 1008.6
20260905005415 75 246 1.0 2.0 0.00 2.13 2.13 92 1008.6
20260905005320 76 187 0.0 1.0 0.00 2.13 2.13 92 1008.4
20260905004910 76 187 0.0 1.0 0.00 2.13 2.13 92 1008.4
20260905004819 76 238 0.0 2.0 0.00 2.13 2.13 92 1008.4
20260905004410 76 238 0.0 2.0 0.00 2.13 2.13 92 1008.4
20260905003905 76 228 0.0 1.0 0.00 2.13 2.13 90 1008.7
20260905003400 76 261 1.0 3.0 0.00 2.13 2.13 90 1008.7
20260905002856 76 264 2.0 3.0 0.00 2.13 2.13 90 1008.6
20260905002350 76 291 2.0 4.0 0.00 2.13 2.13 92 1008.7
20260905001845 75 250 0.0 2.0 0.00 2.13 2.13 92 1008.6
20260905001344 75 321 2.0 3.0 0.00 2.13 2.13 92 1008.4
20260905000839 76 283 0.0 2.0 0.00 2.13 2.13 92 1008.0
20260905000335 76 205 0.0 2.0 0.00 2.13 2.13 91 1008.1
20260904235831 76 262 1.0 2.0 0.00 2.13 2.13 91 1008.3
20260904235326 76 233 1.0 2.0 0.00 2.13 2.13 91 1007.9
20260904234821 76 269 0.0 2.0 0.00 2.13 2.13 89 1008.1
20260904234321 77 278 3.0 4.0 0.00 2.13 2.13 90 1008.0
20260904233817 76 349 1.0 2.0 0.00 2.13 2.13 92 1007.7
20260904233313 76 234 2.0 2.0 0.00 2.13 2.13 91 1007.6
20260904232809 76 188 0.0 1.0 0.00 2.13 2.13 91 1007.4
20260904232306 76 256 0.0 2.0 0.00 2.13 2.13 91 1007.6
20260904231801 77 240 0.0 2.0 0.00 2.13 2.13 90 1007.6
20260904231255 77 246 0.0 1.0 0.00 2.13 2.13 89 1007.4
20260904230751 78 165 0.0 2.0 0.00 2.13 2.13 89 1007.3